Tracking 30746 objects as of 20-Jun-2025
HD Live streaming from Space Station
objects crossing your sky now

KOMPSAT

Track KOMPSAT now!
10-day predictions
KOMPSAT is classified as:


NORAD ID: 26032
Int'l Code: 1999-070A
Perigee: 648.3 km
Apogee: 653.5 km
Inclination: 98.3 °
Period: 97.6 minutes
Semi major axis: 7021 km
RCS: 2.132 m2 (large)
Launch date: December 21, 1999
Source: South Korea (SKOR)
Launch site: AIR FORCE WESTERN TEST RANGE (AFWTR)

Digital cartography of Korea and status of marine biology; satellite also released 3 dozen capsules of cremated remains.
Your satellite tracking list
Your tracking list is empty




NASA's NSSDC Master Catalog

Two Line Element Set (TLE):
1 26032U 99070A   25170.38036208  .00001081  00000-0  16696-3 0  9994
2 26032  98.2674 327.9685 0003682   2.7221 357.4006 14.75442573640337
Source of the keplerian elements: AFSPC